Preview of NWS' New Version of Forecast
This preview is not operational and should not be used for support decisions.

Regional Weather Roundup (RWR)

Issued by National Weather Service (NWS)

                            
000
ASUS46 KSEW 181110
RWRWA 

WASHINGTON REGIONAL WEATHER ROUNDUP
NATIONAL WEATHER SERVICE SEATTLE WA
400 AM PDT THU APR 18 2019

NOTE:"FAIR" INDICATES FEW OR NO CLOUDS BELOW 12,000 FEET WITH NO 
SIGNIFICANT WEATHER AND/OR OBSTRUCTIONS TO VISIBILITY.

WAZ507-509-555>559-181200-
SEATTLE, TACOMA, EVERETT, AND VICINITY
  
CITY           SKY/WX    TMP DP  RH WIND       PRES   REMARKS
EVERETT        CLOUDY    51  48  89 VRB6      30.25F                  
BOEING FIELD   CLOUDY    55  46  71 CALM      30.26F                  
RENTON         CLOUDY    55  47  74 CALM      30.26F                  
SEATAC AIRPORT CLOUDY    54  46  74 S5        30.26F                  
JBLM-MCCHORD   CLOUDY    52  52 100 CALM        N/A                   
PUYALLUP       CLOUDY    52  48  87 CALM      30.26F                  
BREMERTON      MOCLDY    49  47  93 S3        30.26F                  
JBLM-FT LEWIS  NOT AVBL                                               
TACOMA NARROWS CLOUDY    52  48  86 CALM      30.27F                  
$$
 
WAZ001-503-506-510-514-515-181200-
NORTH INTERIOR
  
CITY           SKY/WX    TMP DP  RH WIND       PRES   REMARKS
BELLINGHAM     LGT RAIN  51  48  89 N5        30.24F                  
FRIDAY HARBOR  CLOUDY    50  47  89 CALM      30.26S                  
EASTSOUND      CLOUDY    52  50  93 CALM      30.24S                  
PORT ANGELES   CLOUDY    49  48  97 CALM      30.26R                  
EDIZ HOOK      CLOUDY    49  48  97 W6        30.26S FOG              
PORT TOWNSEND  CLOUDY    50  50 100 CALM      30.24R                  
NAS WHIDBEY    CLOUDY    56  48  74 SE7       30.28F                  
ARLINGTON      CLOUDY    52  48  86 N5        30.26F                  
BURLINGTON     CLOUDY    54  48  82 NE3       30.25S                  
$$
 
WAZ020-022-039-040-504-511-512-181200-
SOUTHWEST INTERIOR
  
CITY           SKY/WX    TMP DP  RH WIND       PRES   REMARKS
SHELTON        CLOUDY    53  48  83 CALM      30.24F                  
OLYMPIA        CLOUDY    50  48  93 CALM      30.26F                  
CHEHALIS       CLOUDY    50  48  93 S5        30.27S                  
KELSO          MOCLDY    48  46  93 CALM      30.28F                  
VANCOUVER      MOCLDY    48  45  89 CALM      30.28F                  
SCAPPOOSE, OR  PTCLDY    47  44  90 W3        30.28F                  
PORTLAND, OR   MOCLDY    49  45  86 CALM      30.29S                  
$$
 
WAZ021-516-517-181200-
WASHINGTON COAST
  
CITY           SKY/WX    TMP DP  RH WIND       PRES   REMARKS
FORKS          LGT RAIN  50  50 100 CALM      30.24F FOG              
HOQUIAM        CLOUDY    51  51 100 E5        30.25F                  
ASTORIA, OR    CLOUDY    48  46  93 CALM      30.25F                  
$$
 
WAZ019-023-024-040-567>569-181200-
CASCADE MOUNTAINS AND COLUMBIA GORGE
  
CITY           SKY/WX    TMP DP  RH WIND       PRES   REMARKS
STAMPEDE PASS  NOT AVBL                                               
TROUTDALE, OR  MOCLDY    47  44  90 E3        30.28F                  
HOOD RIVER, OR MOSUNNY   45  43  93 MISG      30.29S                  
THE DALLES, OR PTCLDY    45  41  86 NW5       30.28S                  
$$

WAZ026-027-041>044-520-521-181200-
EAST SLOPES
  
CITY           SKY/WX    TMP DP  RH WIND       PRES   REMARKS
OMAK           CLOUDY    53  40  61 SE9       30.20S                  
WENATCHEE      CLOUDY    53  36  52 NW7       30.22S                  
ELLENSBURG     CLOUDY    50  38  63 NW12      30.24S                  
YAKIMA         LGT RAIN  47  41  80 W5        30.25S                  
SUNNYSIDE ARPT MOSUNNY   43  40  90 CALM      30.25R                  
YAKIMA TC      LGT RAIN  46  40  79 CALM      30.23S                  
$$

WAZ028-034-035-181200-
COLUMBIA BASIN
  
CITY           SKY/WX    TMP DP  RH WIND       PRES   REMARKS
EPHRATA        PTCLDY    42  36  79 NE6       30.22R                  
MOSES LAKE     CLEAR     45  37  73 S9        30.23S                  
PASCO          CLEAR     49  39  68 E5        30.25S                  
RICHLAND ARPT  SUNNY     45  41  84 CALM      30.25S                  
HERMISTON, OR  CLEAR     44  38  79 S5        30.25F                  
$$

WAZ036>038-181200-
NORTHEAST WASHINGTON
  
CITY           SKY/WX    TMP DP  RH WIND       PRES   REMARKS
SPOKANE GEIGER MOCLDY    45  37  73 S7        30.25S                  
SPOKANE FELTS  CLOUDY    46  39  76 E3        30.26S                  
FAIRCHILD AFB  CLEAR     42  42 100 S8        30.24S                  
COEURDALENE,ID CLOUDY    45  39  79 S9        30.26S                  
DEER PARK      CLOUDY    47  39  74 S7        30.25S                  
$$

WAZ029>033-181200-
SOUTHEAST WASHINGTON
  
CITY           SKY/WX    TMP DP  RH WIND       PRES   REMARKS
PULLMAN        CLEAR     44  38  79 E8        30.29F                  
LEWISTON, ID   CLEAR     45  39  79 E5        30.30S                  
WALLA WALLA    CLEAR     54  36  50 SE3       30.26S                  
PENDLETON, OR  CLEAR     45  39  79 SE6       30.26S                  
$$